Alexander City, AL

9:01 PM CDT on September 21, 2017 (GMT -0500)
Russell

Weather History for KALX - November, 2013

Change the Weather History Date:

Wednesday, November 13, 2013

  Actual Average (KAUO) Record (KAUO)
Temperature  
Mean Temperature 42 °F -  
Max Temperature 55 °F 66 °F 80 °F (1961)
Min Temperature 30 °F 39 °F 22 °F (1968)
Degree Days  
Heating Degree Days 22    
Moisture  
Dew Point 13 °F    
Average Humidity 39    
Maximum Humidity 77    
Minimum Humidity 7    
Precipitation  
Precipitation 0.00 in - - ()
Sea Level Pressure  
Sea Level Pressure 30.50 in    
Wind  
Wind Speed 5 mph (NNE)    
Max Wind Speed 10 mph    
Max Gust Speed 24 mph    
Visibility 10 miles    
Events      
Averages and records for this station are not official NWS values.
T = Trace of Precipitation, MM = Missing Value Source: NWS Daily Summary

Daily Weather History Graph

Daily Weather History Graph

Search for Another Location

Airport or City:

Trip Planner

Search our weather history database for the weather conditions in past years. The results will help you decide how hot, cold, wet, or windy it might be!

Date:

Astronomy

Nov. 13, 2013 Rise Set
Actual Time 6:12 AM CST 4:43 PM CST
Civil Twilight 5:46 AM CST 5:09 PM CST
Nautical Twilight 5:16 AM CST 5:39 PM CST
Astronomical Twilight 4:47 AM CST 6:08 PM CST
Moon 2:20 PM CST (11/13) 2:17 AM CST (11/13)
Length of Visible Light 11h 22m
Length of Day
10h 30m
Waxing Gibbous, 85% of the Moon is Illuminated
Nov 13
Waxing Gibbous
Nov 17
Full
Nov 25
Last Quarter
Dec 2
New
Dec 9
First Quarter

Hourly Weather History & Observations

Time (CST) Temp. Windchill Dew Point Humidity Pressure Visibility Wind Dir Wind Speed Gust Speed Precip Events Conditions
12:15 AM 37.6 °F 31.0 °F 12.0 °F 35% 30.46 in 10.0 mi NNE 9.2 mph 24.2 mph N/A   Clear
12:35 AM 37.6 °F 32.3 °F 12.0 °F 35% 30.46 in 10.0 mi North 6.9 mph - N/A   Clear
12:55 AM 37.6 °F 34.0 °F 12.0 °F 35% 30.47 in 10.0 mi NE 4.6 mph - N/A   Clear
1:15 AM 35.2 °F 32.4 °F 10.9 °F 37% 30.47 in 10.0 mi NNE 3.5 mph - N/A   Clear
1:35 AM 35.1 °F 30.1 °F 11.3 °F 37% 30.47 in 10.0 mi NNE 5.8 mph - N/A   Clear
1:55 AM 35.1 °F 29.3 °F 12.0 °F 39% 30.47 in 10.0 mi North 6.9 mph - N/A   Clear
2:15 AM 35.1 °F 28.6 °F 12.9 °F 40% 30.47 in 10.0 mi NNE 8.1 mph - N/A   Clear
2:35 AM 35.1 °F 29.3 °F 13.5 °F 41% 30.47 in 10.0 mi NNE 6.9 mph - N/A   Clear
2:55 AM 35.1 °F 29.3 °F 14.2 °F 42% 30.47 in 10.0 mi NNE 6.9 mph - N/A   Clear
3:15 AM 35.1 °F 28.6 °F 14.7 °F 43% 30.47 in 10.0 mi NNE 8.1 mph - N/A   Clear
3:35 AM 35.1 °F 29.3 °F 15.4 °F 45% 30.47 in 10.0 mi North 6.9 mph - N/A   Clear
3:55 AM 35.1 °F 30.1 °F 15.6 °F 45% 30.48 in 10.0 mi NNE 5.8 mph - N/A   Clear
4:15 AM 35.1 °F 31.0 °F 16.3 °F 47% 30.49 in 10.0 mi NE 4.6 mph - N/A   Clear
4:35 AM 35.1 °F 31.0 °F 16.7 °F 47% 30.51 in 10.0 mi North 4.6 mph - N/A   Clear
4:55 AM 33.6 °F 29.4 °F 16.2 °F 49% 30.52 in 10.0 mi North 4.6 mph - N/A   Clear
5:15 AM 32.5 °F 28.1 °F 15.3 °F 49% 30.52 in 10.0 mi NNE 4.6 mph - N/A   Clear
5:35 AM 32.5 °F 27.1 °F 15.8 °F 50% 30.52 in 10.0 mi NNE 5.8 mph - N/A   Clear
5:55 AM 32.5 °F 29.3 °F 15.8 °F 50% 30.52 in 10.0 mi NNE 3.5 mph - N/A   Clear
6:15 AM 32.5 °F 29.3 °F 16.5 °F 52% 30.53 in 10.0 mi NNE 3.5 mph - N/A   Clear
6:35 AM 32.5 °F 28.1 °F 16.5 °F 52% 30.53 in 10.0 mi North 4.6 mph - N/A   Clear
6:55 AM 35.1 °F 32.2 °F 18.1 °F 50% 30.54 in 10.0 mi NNE 3.5 mph - N/A   Clear
7:15 AM 35.1 °F 31.0 °F 17.2 °F 48% 30.55 in 10.0 mi NNE 4.6 mph - N/A   Clear
7:35 AM 35.1 °F 31.0 °F 16.2 °F 46% 30.56 in 10.0 mi NNE 4.6 mph - N/A   Clear
7:55 AM 35.4 °F 30.5 °F 15.1 °F 43% 30.57 in 10.0 mi NNE 5.8 mph - N/A   Clear
8:15 AM 37.6 °F 31.0 °F 15.3 °F 40% 30.57 in 10.0 mi NNE 9.2 mph - N/A   Clear
8:35 AM 37.9 °F 32.1 °F 13.5 °F 37% 30.58 in 10.0 mi NNE 8.1 mph 17.3 mph N/A   Clear
8:55 AM 40.1 °F 33.6 °F 12.9 °F 33% 30.58 in 10.0 mi North 10.4 mph - N/A   Clear
9:35 AM 42.8 °F 40.1 °F 10.8 °F 27% 30.58 in 10.0 mi NNE 4.6 mph - N/A   Clear
9:55 AM 43.9 °F 39.3 °F 7.9 °F 23% 30.57 in 10.0 mi NNE 8.1 mph - N/A   Clear
10:15 AM 46.9 °F - 5.9 °F 19% 30.57 in 10.0 mi East 8.1 mph - N/A   Clear
10:35 AM 47.7 °F - 4.6 °F 17% 30.57 in 10.0 mi NNE 6.9 mph - N/A   Clear
10:55 AM 50.2 °F - 5.9 °F 17% 30.56 in 10.0 mi North 5.8 mph - N/A   Clear
11:15 AM 50.2 °F - 5.7 °F 16% 30.55 in 10.0 mi NE 6.9 mph 16.1 mph N/A   Clear
11:35 AM 50.2 °F - 4.6 °F 16% 30.54 in 10.0 mi NE 4.6 mph - N/A   Clear
11:55 AM 50.2 °F - 2.7 °F 14% 30.52 in 10.0 mi North 8.1 mph - N/A   Clear
12:15 PM 51.4 °F - 1.8 °F 13% 30.51 in 10.0 mi North 10.4 mph - N/A   Clear
12:35 PM 52.7 °F - -0.6 °F 11% 30.51 in 10.0 mi North 5.8 mph - N/A   Clear
12:55 PM 54.7 °F - 0.7 °F 11% 30.50 in 10.0 mi NE 5.8 mph - N/A   Clear
1:15 PM 55.4 °F - -3.1 °F 9% 30.49 in 10.0 mi NNE 6.9 mph - N/A   Clear
1:35 PM 55.4 °F - -2.6 °F 9% 30.48 in 10.0 mi NE 8.1 mph - N/A   Clear
1:55 PM 55.4 °F - -3.1 °F 9% 30.47 in 10.0 mi North 6.9 mph - N/A   Clear
2:15 PM 55.4 °F - -5.1 °F 8% 30.47 in 10.0 mi Calm Calm - N/A   Clear
2:35 PM 55.4 °F - -6.5 °F 8% 30.47 in 10.0 mi NE 3.5 mph - N/A   Clear
2:55 PM 55.4 °F - -7.8 °F 7% 30.46 in 10.0 mi North 8.1 mph - N/A   Clear
3:15 PM 55.4 °F - -9.9 °F 7% 30.47 in 10.0 mi ENE 3.5 mph - N/A   Clear
3:35 PM 55.4 °F - -7.2 °F 8% 30.47 in 10.0 mi NNE 4.6 mph - N/A   Clear
3:55 PM 55.4 °F - -4.5 °F 9% 30.46 in 10.0 mi NNE 5.8 mph - N/A   Clear
4:15 PM 55.4 °F - -2.2 °F 9% 30.46 in 10.0 mi NE 4.6 mph - N/A   Clear
4:35 PM 52.9 °F - 1.6 °F 12% 30.46 in 10.0 mi NE 3.5 mph - N/A   Clear
4:55 PM 50.7 °F - 2.5 °F 14% 30.46 in 10.0 mi Calm Calm - N/A   Clear
5:15 PM 47.7 °F - 18.1 °F 31% 30.46 in 10.0 mi Calm Calm - N/A   Clear
5:35 PM 42.8 °F - 20.7 °F 41% 30.47 in 10.0 mi Calm Calm - N/A   Clear
5:55 PM 41.4 °F - 21.0 °F 44% 30.47 in 10.0 mi Calm Calm - N/A   Clear
6:15 PM 40.3 °F - 20.5 °F 45% 30.47 in 10.0 mi Calm Calm - N/A   Clear
6:35 PM 40.1 °F - 20.8 °F 46% 30.47 in 10.0 mi Calm Calm - N/A   Clear
6:55 PM 40.1 °F - 22.3 °F 49% 30.47 in 10.0 mi Calm Calm - N/A   Clear
7:15 PM 37.6 °F - 23.5 °F 57% 30.47 in 10.0 mi Calm Calm - N/A   Clear
7:35 PM 37.6 °F - 24.6 °F 60% 30.48 in 10.0 mi Calm Calm - N/A   Clear
7:55 PM 37.6 °F - 25.9 °F 63% 30.48 in 10.0 mi Calm Calm - N/A   Clear
8:15 PM 37.9 °F - 23.7 °F 57% 30.49 in 10.0 mi Calm Calm - N/A   Clear
8:35 PM 35.1 °F - 25.5 °F 68% 30.49 in 10.0 mi Calm Calm - N/A   Clear
8:55 PM 35.1 °F - 25.7 °F 69% 30.48 in 10.0 mi Calm Calm - N/A   Clear
9:15 PM 32.5 °F - 24.8 °F 73% 30.48 in 10.0 mi Calm Calm - N/A   Clear
9:35 PM 35.1 °F - 26.6 °F 71% 30.48 in 10.0 mi Calm Calm - N/A   Clear
9:55 PM 35.1 °F - 24.6 °F 66% 30.48 in 10.0 mi Calm Calm - N/A   Clear
10:15 PM 34.2 °F - 25.9 °F 72% 30.48 in 10.0 mi Calm Calm - N/A   Clear
10:35 PM 32.9 °F - 25.0 °F 73% 30.47 in 10.0 mi Calm Calm - N/A   Clear
10:55 PM 31.5 °F - 24.3 °F 75% 30.47 in 10.0 mi Calm Calm - N/A   Clear
11:15 PM 31.1 °F - 24.1 °F 75% 30.46 in 10.0 mi Calm Calm - N/A   Clear
11:35 PM 30.6 °F - 23.5 °F 75% 30.47 in 10.0 mi Calm Calm - N/A   Clear
11:55 PM 30.2 °F - 23.9 °F 77% 30.46 in 10.0 mi Calm Calm - N/A   Clear